When you browse on this site, cookies collect data to enhance your experience and personalize the content and advertising you see.
Visit our Privacy Policy to learn more. By continuing to use the site, you agree to this use of cookies and data.
  • In United Kingdom
  • List of Countries
  • For 7 days
  • Water Temperature
  • Weather Map
  • Weather Widgets
  • user-avatar
    Login

    Hourly Weather Kempele

    Today, 23 September, Monday

    Time Temperature Precipitation Wind Pressure Humidity
    00:00 +1°C° 0 mm 3 mps 765 mmHg 85%
    01:00 +1°C° 0 mm 3 mps 765 mmHg 87%
    02:00 0°C° 0 mm 3 mps 765 mmHg 90%
    03:00 0°C° 0 mm 3 mps 765 mmHg 90%
    04:00 -1°C° 0 mm 3 mps 765 mmHg 91%
    05:00 -1°C° 0 mm 3 mps 765 mmHg 92%
    06:00 -1°C° 0 mm 4 mps 765 mmHg 89%
    07:00 0°C° 0 mm 4 mps 766 mmHg 85%
    08:00 0°C° 0 mm 4 mps 766 mmHg 82%
    09:00 +3°C° 0 mm 4 mps 765 mmHg 75%
    10:00 +4°C° 0 mm 4 mps 765 mmHg 69%
    11:00 +5°C° 0 mm 4 mps 765 mmHg 62%
    12:00 +5°C° 0 mm 4 mps 765 mmHg 60%
    13:00 +6°C° 0 mm 4 mps 765 mmHg 58%
    14:00 +6°C° 0 mm 4 mps 765 mmHg 55%
    15:00 +6°C° 0 mm 4 mps 765 mmHg 58%
    16:00 +5°C° 0 mm 3 mps 764 mmHg 61%
    17:00 +5°C° 0 mm 3 mps 764 mmHg 63%
    18:00 +4°C° 0 mm 3 mps 764 mmHg 67%
    19:00 +4°C° 0 mm 2 mps 764 mmHg 71%
    20:00 +3°C° 0 mm 2 mps 764 mmHg 74%
    21:00 +2°C° 0 mm 2 mps 764 mmHg 77%
    22:00 +1°C° 0 mm 2 mps 764 mmHg 79%
    23:00 +2°C° 0 mm 1 mps 764 mmHg 82%

    Tomorrow, 24 September, Tuesday

    Time Temperature Precipitation Wind Pressure Humidity
    00:00 +1°C° 0 mm 1 mps 764 mmHg 83%
    01:00 +1°C° 0 mm 1 mps 764 mmHg 85%
    02:00 +1°C° 0 mm 1 mps 764 mmHg 87%
    03:00 0°C° 0 mm 1 mps 764 mmHg 87%
    04:00 0°C° 0 mm 1 mps 764 mmHg 88%
    05:00 0°C° 0 mm 1 mps 764 mmHg 89%
    06:00 0°C° 0 mm 0 mps 763 mmHg 85%
    07:00 +1°C° 0 mm 0 mps 763 mmHg 80%
    08:00 +1°C° 0 mm 0 mps 763 mmHg 75%
    09:00 +4°C° 0 mm 1 mps 763 mmHg 68%
    10:00 +6°C° 0 mm 1 mps 763 mmHg 61%
    11:00 +7°C° 0 mm 1 mps 763 mmHg 54%
    12:00 +7°C° 0 mm 1 mps 763 mmHg 53%
    13:00 +7°C° 0 mm 1 mps 763 mmHg 52%
    14:00 +7°C° 0 mm 2 mps 762 mmHg 51%
    15:00 +6°C° 0 mm 2 mps 762 mmHg 55%
    16:00 +5°C° 0 mm 2 mps 762 mmHg 59%
    17:00 +6°C° 0 mm 1 mps 762 mmHg 64%
    18:00 +4°C° 0 mm 1 mps 762 mmHg 69%
    19:00 +3°C° 0 mm 1 mps 762 mmHg 74%
    20:00 +2°C° 0 mm 1 mps 762 mmHg 79%
    21:00 +1°C° 0 mm 1 mps 762 mmHg 80%
    22:00 +1°C° 0 mm 1 mps 762 mmHg 82%
    23:00 +1°C° 0 mm 1 mps 762 mmHg 84%

    Day after tomorrow, 25 September, Wednesday

    Time Temperature Precipitation Wind Pressure Humidity
    00:00 0°C° 0 mm 1 mps 762 mmHg 84%
    01:00 0°C° 0 mm 1 mps 762 mmHg 84%
    02:00 0°C° 0 mm 1 mps 762 mmHg 85%
    03:00 0°C° 0 mm 1 mps 762 mmHg 85%
    04:00 0°C° 0 mm 1 mps 762 mmHg 86%
    05:00 -1°C° 0 mm 1 mps 762 mmHg 87%
    06:00 0°C° 0 mm 1 mps 762 mmHg 82%
    07:00 +1°C° 0 mm 1 mps 762 mmHg 77%
    08:00 +1°C° 0 mm 0 mps 762 mmHg 72%
    09:00 +3°C° 0 mm 0 mps 762 mmHg 65%
    10:00 +5°C° 0 mm 0 mps 763 mmHg 58%
    11:00 +7°C° 0 mm 0 mps 763 mmHg 52%
    12:00 +8°C° 0 mm 1 mps 763 mmHg 52%
    13:00 +8°C° 0 mm 1 mps 762 mmHg 52%
    14:00 +9°C° 0 mm 1 mps 762 mmHg 53%
    15:00 +8°C° 0 mm 1 mps 762 mmHg 59%
    16:00 +7°C° 0 mm 1 mps 762 mmHg 65%
    17:00 +6°C° 0 mm 1 mps 762 mmHg 71%
    18:00 +5°C° 0 mm 1 mps 762 mmHg 76%
    19:00 +4°C° 0 mm 1 mps 762 mmHg 80%
    20:00 +3°C° 0 mm 1 mps 762 mmHg 84%
    21:00 +2°C° 0 mm 2 mps 762 mmHg 84%
    22:00 +2°C° 0 mm 2 mps 762 mmHg 83%
    23:00 +2°C° 0 mm 2 mps 762 mmHg 83%

    26 September, Thursday

    Time Temperature Precipitation Wind Pressure Humidity
    00:00 +2°C° 0 mm 2 mps 762 mmHg 83%
    01:00 +1°C° 0 mm 3 mps 762 mmHg 83%
    02:00 +1°C° 0 mm 3 mps 762 mmHg 83%
    03:00 +1°C° 0 mm 3 mps 761 mmHg 85%
    04:00 +1°C° 0 mm 3 mps 761 mmHg 86%
    05:00 +1°C° 0 mm 3 mps 761 mmHg 87%
    06:00 +2°C° 0 mm 3 mps 761 mmHg 87%
    07:00 +3°C° 0 mm 3 mps 761 mmHg 86%
    08:00 +4°C° 0 mm 3 mps 761 mmHg 86%
    09:00 +6°C° 0 mm 4 mps 761 mmHg 82%
    10:00 +7°C° 0 mm 4 mps 761 mmHg 79%
    11:00 +10°C° 0 mm 4 mps 761 mmHg 76%
    12:00 +10°C° 0 mm 4 mps 761 mmHg 75%
    13:00 +10°C° 0 mm 4 mps 761 mmHg 74%
    14:00 +10°C° 0 mm 4 mps 761 mmHg 74%
    15:00 +8°C° 0 mm 4 mps 761 mmHg 77%
    16:00 +9°C° 0 mm 3 mps 761 mmHg 80%
    17:00 +8°C° 0 mm 3 mps 761 mmHg 83%
    18:00 +7°C° 0 mm 2 mps 761 mmHg 87%
    19:00 +6°C° 0 mm 2 mps 761 mmHg 90%
    20:00 +6°C° 0 mm 1 mps 761 mmHg 93%
    21:00 +6°C° 0 mm 1 mps 761 mmHg 93%
    22:00 +6°C° 0 mm 1 mps 762 mmHg 93%
    23:00 +5°C° 0 mm 1 mps 762 mmHg 93%

    27 September, Friday

    Time Temperature Precipitation Wind Pressure Humidity
    00:00 +5°C° 0 mm 1 mps 762 mmHg 93%
    01:00 +5°C° 0 mm 1 mps 762 mmHg 94%
    02:00 +5°C° 0 mm 1 mps 762 mmHg 94%
    03:00 +4°C° 0 mm 2 mps 762 mmHg 95%
    04:00 +4°C° 0 mm 2 mps 762 mmHg 95%
    05:00 +4°C° 0 mm 2 mps 761 mmHg 95%
    06:00 +4°C° 0 mm 2 mps 761 mmHg 94%
    07:00 +5°C° 0 mm 2 mps 761 mmHg 93%
    08:00 +5°C° 0 mm 2 mps 761 mmHg 92%
    09:00 +7°C° 0 mm 2 mps 761 mmHg 87%
    10:00 +8°C° 0 mm 2 mps 761 mmHg 82%
    11:00 +10°C° 0 mm 3 mps 761 mmHg 77%
    12:00 +10°C° 0 mm 3 mps 761 mmHg 74%
    13:00 +11°C° 0 mm 3 mps 761 mmHg 71%
    14:00 +11°C° 0 mm 3 mps 761 mmHg 68%
    15:00 +11°C° 0 mm 3 mps 761 mmHg 72%
    16:00 +10°C° 0 mm 2 mps 760 mmHg 77%
    17:00 +9°C° 0 mm 2 mps 760 mmHg 81%
    18:00 +8°C° 0 mm 2 mps 760 mmHg 84%
    19:00 +7°C° 0 mm 2 mps 760 mmHg 88%
    20:00 +7°C° 0 mm 2 mps 760 mmHg 91%
    21:00 +6°C° 0 mm 2 mps 760 mmHg 91%
    22:00 +5°C° 0 mm 3 mps 760 mmHg 92%
    23:00 +5°C° 0 mm 3 mps 759 mmHg 92%

    28 September, Saturday

    Time Temperature Precipitation Wind Pressure Humidity
    00:00 +5°C° 0 mm 3 mps 759 mmHg 89%
    01:00 +5°C° 0 mm 3 mps 759 mmHg 86%
    02:00 +7°C° 0 mm 3 mps 758 mmHg 83%
    03:00 +7°C° 0 mm 3 mps 758 mmHg 82%
    04:00 +7°C° 0 mm 3 mps 758 mmHg 81%
    05:00 +7°C° 0 mm 3 mps 757 mmHg 80%
    06:00 +6°C° 0 mm 4 mps 757 mmHg 81%
    07:00 +5°C° 0 mm 4 mps 756 mmHg 83%
    08:00 +5°C° 0 mm 4 mps 756 mmHg 84%
    09:00 +6°C° 0 mm 4 mps 756 mmHg 80%
    10:00 +7°C° 0 mm 4 mps 755 mmHg 77%
    11:00 +8°C° 0 mm 4 mps 755 mmHg 73%
    12:00 +8°C° 0 mm 4 mps 754 mmHg 75%
    13:00 +8°C° 0 mm 4 mps 754 mmHg 76%
    14:00 +8°C° 0 mm 4 mps 753 mmHg 77%
    15:00 +8°C° 0 mm 4 mps 753 mmHg 80%
    16:00 +7°C° 0 mm 4 mps 752 mmHg 83%
    17:00 +7°C° 0 mm 4 mps 751 mmHg 86%
    18:00 +7°C° 0.1 mm 4 mps 751 mmHg 88%
    19:00 +8°C° 0.1 mm 4 mps 750 mmHg 89%
    20:00 +8°C° 0.1 mm 4 mps 749 mmHg 90%
    21:00 +8°C° 1 mm 4 mps 749 mmHg 92%
    22:00 +8°C° 1 mm 4 mps 748 mmHg 94%
    23:00 +8°C° 1 mm 4 mps 747 mmHg 96%
    Show more